Change the Weather History Date:

Friday, October 11, 2013

  Actual Average Record
Temperature  
Mean Temperature 70 °F -  
Max Temperature 83 °F 77 °F 88 °F (2010)
Min Temperature 58 °F 56 °F 39 °F (2000)
Cooling Degree Days 6    
Growing Degree Days 20 (Base 50)    
Moisture  
Dew Point 61 °F    
Average Humidity 94    
Maximum Humidity 100    
Minimum Humidity 44    
Precipitation  
Precipitation 0.00 in - - ()
Sea Level Pressure  
Sea Level Pressure 30.04 in    
Wind  
Wind Speed 1 mph (West)    
Max Wind Speed 8 mph    
Max Gust Speed -    
Visibility 3 miles    
Events Fog , Rain    
Averages and records for this station are not official NWS values.
T = Trace of Precipitation, MM = Missing Value Source: NWS Daily Summary

Daily Weather History Graph

Daily Weather History Graph

Search for Another Location

Airport or City:

Trip Planner

Search our weather history database for the weather conditions in past years. The results will help you decide how hot, cold, wet, or windy it might be!

Date:

Astronomy

Oct. 11, 2013 Rise Set
Actual Time 6:46 AM CDT 6:17 PM CDT
Civil Twilight 6:21 AM CDT 6:41 PM CDT
Nautical Twilight 5:53 AM CDT 7:10 PM CDT
Astronomical Twilight 5:24 AM CDT 7:38 PM CDT
Moon 1:17 PM CDT (10/11) No Moon Set
Length of Visible Light 12h 19m
Length of Day
11h 30m
Waxing Crescent, 47% of the Moon is Illuminated
Oct 11
Waxing Crescent
Oct 11
First Quarter
Oct 18
Full
Oct 26
Last Quarter
Nov 3
New

Hourly Weather History & Observations

Time (CDT) Temp. Heat Index Dew Point Humidity Pressure Visibility Wind Dir Wind Speed Gust Speed Precip Events Conditions
12:03 AM 62.6 °F - 62.6 °F 100% 30.02 in 1.5 mi Calm Calm - N/A   Clear
12:08 AM 62.6 °F - 62.6 °F 100% 30.02 in 1.2 mi Calm Calm - N/A   Clear
12:13 AM 62.6 °F - 62.6 °F 100% 30.02 in 1.0 mi Calm Calm - N/A   Clear
12:18 AM 62.6 °F - 62.6 °F 100% 30.02 in 0.5 mi Calm Calm - N/A Fog Fog
12:33 AM 62.6 °F - 60.8 °F 94% 30.02 in 0.8 mi Calm Calm - N/A   Clear
12:38 AM 62.6 °F - 60.8 °F 94% 30.02 in 1.5 mi Calm Calm - N/A   Clear
12:43 AM 60.8 °F - 60.8 °F 100% 30.02 in 0.8 mi Calm Calm - N/A   Clear
12:48 AM 62.6 °F - 60.8 °F 94% 30.02 in 0.8 mi Calm Calm - N/A   Clear
12:53 AM 62.6 °F - 62.6 °F 100% 30.02 in 3.0 mi Calm Calm - N/A   Clear
12:58 AM 62.2 °F - 61.9 °F 99% 30.03 in 2.5 mi Calm Calm - N/A   Clear
1:03 AM 62.6 °F - 62.6 °F 100% 30.02 in 1.0 mi Calm Calm - N/A   Clear
1:06 AM 60.8 °F - 60.8 °F 100% 30.02 in 0.8 mi Calm Calm - N/A Rain Light Rain
1:11 AM 60.8 °F - 60.8 °F 100% 30.02 in 1.2 mi WSW 1.2 mph - N/A Rain Light Rain
1:12 AM 60.8 °F - 60.8 °F 100% 30.02 in 1.5 mi WSW 1.2 mph - N/A   Clear
1:17 AM 60.8 °F - 60.8 °F 100% 30.02 in 6.0 mi SW 1.2 mph - N/A   Clear
1:52 AM 60.8 °F - 60.8 °F 100% 30.02 in 2.5 mi WNW 1.2 mph - N/A   Clear
1:58 AM 60.8 °F - 60.6 °F 99% 30.03 in 2.5 mi Calm Calm - 0.00 in   Clear
2:03 AM 60.8 °F - 59.0 °F 94% 30.02 in 6.0 mi Calm Calm - N/A   Clear
2:13 AM 60.8 °F - 60.8 °F 100% 30.02 in 2.0 mi Calm Calm - N/A   Clear
2:18 AM 60.8 °F - 60.8 °F 100% 30.02 in 1.5 mi WSW 2.3 mph - N/A   Clear
2:23 AM 60.8 °F - 59.0 °F 94% 30.02 in 2.5 mi WSW 1.2 mph - N/A   Clear
2:28 AM 60.8 °F - 59.0 °F 94% 30.02 in 6.0 mi WSW 1.2 mph - N/A   Clear
2:38 AM 60.8 °F - 59.0 °F 94% 30.02 in 2.0 mi WNW 1.2 mph - N/A   Clear
2:43 AM 60.8 °F - 59.0 °F 94% 30.02 in 1.5 mi Calm Calm - N/A   Clear
2:48 AM 60.8 °F - 59.0 °F 94% 30.02 in 3.0 mi Calm Calm - N/A   Clear
2:58 AM 60.1 °F - 59.7 °F 99% 30.03 in 3.0 mi SW 2.3 mph - N/A   Clear
3:03 AM 60.8 °F - 59.0 °F 94% 30.02 in 1.5 mi SW 2.3 mph - N/A   Clear
3:08 AM 59.0 °F - 59.0 °F 100% 30.02 in 0.8 mi SW 3.5 mph - N/A   Clear
3:13 AM 60.8 °F - 59.0 °F 94% 30.02 in 0.5 mi SW 2.3 mph - N/A Fog Fog
3:18 AM 60.8 °F - 60.8 °F 100% 30.02 in 0.8 mi WSW 2.3 mph - N/A   Clear
3:23 AM 59.0 °F - 59.0 °F 100% 30.02 in 0.8 mi WSW 2.3 mph - N/A   Clear
3:28 AM 59.0 °F - 59.0 °F 100% 30.01 in 1.0 mi WSW 1.2 mph - N/A   Clear
3:33 AM 59.0 °F - 59.0 °F 100% 30.02 in 1.2 mi Calm Calm - N/A   Clear
3:38 AM 59.0 °F - 59.0 °F 100% 30.02 in 1.0 mi Calm Calm - N/A   Clear
3:43 AM 59.0 °F - 59.0 °F 100% 30.02 in 0.8 mi Calm Calm - N/A   Clear
3:53 AM 59.0 °F - 59.0 °F 100% 30.02 in 1.0 mi Calm Calm - N/A   Clear
3:58 AM 59.0 °F - 59.0 °F 100% 30.03 in 1.8 mi Calm Calm - N/A   Clear
4:03 AM 59.0 °F - 59.0 °F 100% 30.02 in 1.0 mi Calm Calm - N/A   Clear
4:08 AM 59.0 °F - 59.0 °F 100% 30.02 in 0.5 mi Calm Calm - N/A Fog Fog
4:23 AM 59.0 °F - 59.0 °F 100% 30.02 in 0.2 mi Calm Calm - N/A Fog Fog
4:28 AM 59.0 °F - 59.0 °F 100% 30.02 in 0.5 mi Calm Calm - N/A Fog Fog
4:58 AM 59.0 °F - 59.0 °F 100% 30.04 in 0.2 mi Calm Calm - N/A Fog Fog
5:03 AM 59.0 °F - 59.0 °F 100% 30.03 in 0.5 mi Calm Calm - N/A Fog Fog
5:13 AM 59.0 °F - 59.0 °F 100% 30.03 in 0.5 mi Calm Calm - N/A Fog Fog
5:18 AM 59.0 °F - 59.0 °F 100% 30.04 in 0.2 mi Calm Calm - N/A Fog Fog
5:23 AM 59.0 °F - 59.0 °F 100% 30.04 in 0.5 mi Calm Calm - N/A Fog Fog
5:28 AM 59.0 °F - 59.0 °F 100% 30.04 in 0.2 mi Calm Calm - N/A Fog Fog
5:58 AM 59.0 °F - 59.0 °F 100% 30.05 in 0.2 mi Calm Calm - N/A Fog Fog
6:03 AM 59.0 °F - 59.0 °F 100% 30.04 in 0.2 mi WNW 1.2 mph - N/A Fog Fog
6:08 AM 59.0 °F - 59.0 °F 100% 30.05 in 0.2 mi Calm Calm - N/A Fog Fog
6:23 AM 59.0 °F - 59.0 °F 100% 30.05 in 0.2 mi Calm Calm - N/A Fog Fog
6:33 AM 59.0 °F - 59.0 °F 100% 30.05 in 0.2 mi WSW 1.2 mph - N/A Fog Fog
6:48 AM 59.0 °F - 59.0 °F 100% 30.05 in 0.2 mi SW 1.2 mph - N/A Fog Fog
6:58 AM 58.6 °F - 58.3 °F 99% 30.07 in 0.2 mi Calm Calm - N/A Fog Fog
7:03 AM 59.0 °F - 59.0 °F 100% 30.06 in 0.2 mi Calm Calm - N/A Fog Fog
7:18 AM 59.0 °F - 59.0 °F 100% 30.06 in 0.5 mi SW 1.2 mph - N/A Fog Fog
7:28 AM 59.0 °F - 59.0 °F 100% 30.06 in 0.2 mi Calm Calm - N/A Fog Fog
7:38 AM 59.0 °F - 59.0 °F 100% 30.07 in 0.2 mi WSW 2.3 mph - N/A Fog Fog
7:48 AM 60.8 °F - 59.0 °F 94% 30.07 in 0.2 mi WNW 2.3 mph - N/A Fog Fog
7:53 AM 60.8 °F - 60.8 °F 100% 30.07 in 0.5 mi NNW 2.3 mph - N/A Fog Fog
7:58 AM 60.4 °F - 60.1 °F 99% 30.09 in 0.8 mi NW 2.3 mph - N/A   Mist
8:03 AM 60.8 °F - 60.8 °F 100% 30.08 in 1.2 mi NW 2.3 mph - N/A   Overcast
8:08 AM 60.8 °F - 60.8 °F 100% 30.08 in 1.5 mi NW 2.3 mph - N/A   Overcast
8:18 AM 60.8 °F - 60.8 °F 100% 30.09 in 0.5 mi NNW 2.3 mph - N/A Fog Fog
8:23 AM 60.8 °F - 60.8 °F 100% 30.09 in 0.2 mi NW 2.3 mph - N/A Fog Fog
8:33 AM 60.8 °F - 60.8 °F 100% 30.09 in 0.2 mi NNW 1.2 mph - N/A Fog Fog
8:48 AM 62.6 °F - 62.6 °F 100% 30.09 in 0.2 mi North 1.2 mph - N/A Fog Fog
8:53 AM 62.6 °F - 62.6 °F 100% 30.09 in 0.5 mi Calm Calm - N/A Fog Fog
8:58 AM 63.0 °F - 62.6 °F 99% 30.10 in 0.5 mi North 1.2 mph - N/A Fog Fog
9:03 AM 62.6 °F - 62.6 °F 100% 30.09 in 1.0 mi NNW 1.2 mph - N/A   Mist
9:08 AM 62.6 °F - 62.6 °F 100% 30.09 in 4.0 mi WNW 1.2 mph - N/A   Overcast
9:33 AM 64.4 °F - 64.4 °F 100% 30.09 in 10.0 mi Calm Calm - N/A   Scattered Clouds
9:58 AM 66.4 °F - 66.4 °F 100% 30.10 in 10.0 mi Variable 1.2 mph - N/A   Clear
10:58 AM 76.3 °F - 66.0 °F 70% 30.10 in 10.0 mi NW 6.9 mph - N/A   Clear
11:58 AM 80.2 °F 81.6 °F 63.3 °F 56% 30.08 in 10.0 mi Variable 1.2 mph - N/A   Mostly Cloudy
12:58 PM 81.3 °F 82.1 °F 61.2 °F 50% 30.05 in 10.0 mi NW 8.1 mph - N/A   Partly Cloudy
1:58 PM 82.2 °F 82.3 °F 59.2 °F 45% 30.03 in 10.0 mi Variable 4.6 mph - N/A   Clear
2:58 PM 83.3 °F 83.2 °F 59.5 °F 44% 30.01 in 10.0 mi Variable 1.2 mph - N/A   Clear
3:58 PM 82.0 °F 82.4 °F 59.9 °F 47% 30.00 in 10.0 mi NW 5.8 mph - N/A   Clear
4:58 PM 81.5 °F 82.2 °F 61.0 °F 50% 29.99 in 10.0 mi NW 5.8 mph - N/A   Clear
5:58 PM 77.2 °F - 62.6 °F 61% 30.00 in 10.0 mi NW 2.3 mph - N/A   Clear
6:58 PM 70.2 °F - 63.7 °F 80% 30.00 in 10.0 mi Calm Calm - N/A   Clear
7:58 PM 67.5 °F - 63.3 °F 87% 30.01 in 10.0 mi Calm Calm - N/A   Clear
8:58 PM 65.5 °F - 63.1 °F 92% 30.02 in 10.0 mi WSW 2.3 mph - N/A   Clear
9:58 PM 64.2 °F - 63.1 °F 96% 30.03 in 10.0 mi Calm Calm - N/A   Clear
10:58 PM 62.8 °F - 62.2 °F 98% 30.03 in 9.0 mi SW 2.3 mph - N/A   Clear
11:26 PM 62.6 °F - 62.6 °F 100% 30.01 in 9.0 mi Calm Calm - N/A   Light Drizzle
11:36 PM 62.6 °F - 60.8 °F 94% 30.02 in 8.0 mi Calm Calm - N/A   Clear
11:58 PM 62.6 °F - 62.1 °F 98% 30.03 in 8.0 mi SSW 3.5 mph - 0.00 in   Clear